Year,Month,Day,Hour,Minute,Value (Times are PST for temperature in C)
2006,06,25,00,00,14.80
2006,06,25,00,01,14.80
2006,06,25,00,02,14.80
2006,06,25,00,03,14.80
2006,06,25,00,04,14.80
2006,06,25,00,05,14.80
2006,06,25,00,06,14.70
2006,06,25,00,07,14.70
2006,06,25,00,08,14.70
2006,06,25,00,09,14.60
2006,06,25,00,10,14.60
2006,06,25,00,11,14.60
2006,06,25,00,12,14.50
2006,06,25,00,13,14.50
2006,06,25,00,14,14.50
2006,06,25,00,15,14.50
2006,06,25,00,16,14.50
2006,06,25,00,17,14.50
2006,06,25,00,18,14.50
2006,06,25,00,19,14.50
2006,06,25,00,20,14.40
2006,06,25,00,21,14.40
2006,06,25,00,22,14.40
2006,06,25,00,23,14.40
2006,06,25,00,24,14.40
2006,06,25,00,25,14.40
2006,06,25,00,26,14.40
2006,06,25,00,27,14.40
2006,06,25,00,28,14.30
2006,06,25,00,29,14.30
2006,06,25,00,30,14.20
2006,06,25,00,31,14.20
2006,06,25,00,32,14.20
2006,06,25,00,33,14.10
2006,06,25,00,34,14.10
2006,06,25,00,35,14.00
2006,06,25,00,36,14.00
2006,06,25,00,37,13.90
2006,06,25,00,38,13.90
2006,06,25,00,39,13.80
2006,06,25,00,40,13.80
2006,06,25,00,41,13.80
2006,06,25,00,42,13.70
2006,06,25,00,43,13.70
2006,06,25,00,44,13.70
2006,06,25,00,45,13.70
2006,06,25,00,46,13.70
2006,06,25,00,47,13.70
2006,06,25,00,48,13.70
2006,06,25,00,49,13.70
2006,06,25,00,50,13.70
2006,06,25,00,51,13.70
2006,06,25,00,52,13.70
2006,06,25,00,53,13.70
2006,06,25,00,54,13.70
2006,06,25,00,55,13.70
2006,06,25,00,56,13.70
2006,06,25,00,57,13.60
2006,06,25,00,58,13.60
2006,06,25,00,59,13.60
2006,06,25,01,00,13.60
2006,06,25,01,01,13.60
2006,06,25,01,02,13.60
2006,06,25,01,03,13.60
2006,06,25,01,04,13.60
2006,06,25,01,05,13.60
2006,06,25,01,06,13.60
2006,06,25,01,07,13.60
2006,06,25,01,08,13.50
2006,06,25,01,09,13.50
2006,06,25,01,10,13.50
2006,06,25,01,11,13.50
2006,06,25,01,12,13.50
2006,06,25,01,13,13.50
2006,06,25,01,14,13.50
2006,06,25,01,15,13.40
2006,06,25,01,16,13.40
2006,06,25,01,17,13.40
2006,06,25,01,18,13.40
2006,06,25,01,19,13.30
2006,06,25,01,20,13.30
2006,06,25,01,21,13.30
2006,06,25,01,22,13.30
2006,06,25,01,23,13.30
2006,06,25,01,24,13.30
2006,06,25,01,25,13.30
2006,06,25,01,26,13.30
2006,06,25,01,27,13.20
2006,06,25,01,28,13.20
2006,06,25,01,29,13.20
2006,06,25,01,30,13.20
2006,06,25,01,31,13.20
2006,06,25,01,32,13.20
2006,06,25,01,33,13.10
2006,06,25,01,34,13.10
2006,06,25,01,35,13.10
2006,06,25,01,36,13.10
2006,06,25,01,37,13.00
2006,06,25,01,38,13.00
2006,06,25,01,39,13.00
2006,06,25,01,40,13.00
2006,06,25,01,41,13.00
2006,06,25,01,42,13.00
2006,06,25,01,43,13.00
2006,06,25,01,44,13.00
2006,06,25,01,45,13.00
2006,06,25,01,46,13.00
2006,06,25,01,47,13.00
2006,06,25,01,48,13.00
2006,06,25,01,49,13.00
2006,06,25,01,50,12.90
2006,06,25,01,51,12.90
2006,06,25,01,52,12.90
2006,06,25,01,53,12.90
2006,06,25,01,54,12.80
2006,06,25,01,55,12.80
2006,06,25,01,56,12.80
2006,06,25,01,57,12.70
2006,06,25,01,58,12.70
2006,06,25,01,59,12.60
2006,06,25,02,00,12.60
2006,06,25,02,01,12.60
2006,06,25,02,02,12.50
2006,06,25,02,03,12.50
2006,06,25,02,04,12.50
2006,06,25,02,05,12.50
2006,06,25,02,06,12.50
2006,06,25,02,07,12.40
2006,06,25,02,08,12.40
2006,06,25,02,09,12.40
2006,06,25,02,10,12.40
2006,06,25,02,11,12.40
2006,06,25,02,12,12.40
2006,06,25,02,13,12.40
2006,06,25,02,14,12.40
2006,06,25,02,15,12.40
2006,06,25,02,16,12.50
2006,06,25,02,17,12.50
2006,06,25,02,18,12.50
2006,06,25,02,19,12.50
2006,06,25,02,20,12.50
2006,06,25,02,21,12.50
2006,06,25,02,22,12.60
2006,06,25,02,23,12.60
2006,06,25,02,24,12.60
2006,06,25,02,25,12.60
2006,06,25,02,26,12.60
2006,06,25,02,27,12.60
2006,06,25,02,28,12.50
2006,06,25,02,29,12.50
2006,06,25,02,30,12.50
2006,06,25,02,31,12.50
2006,06,25,02,32,12.50
2006,06,25,02,33,12.40
2006,06,25,02,34,12.40
2006,06,25,02,35,12.40
2006,06,25,02,36,12.40
2006,06,25,02,37,12.30
2006,06,25,02,38,12.30
2006,06,25,02,39,12.30
2006,06,25,02,40,12.30
2006,06,25,02,41,12.30
2006,06,25,02,42,12.30
2006,06,25,02,43,12.30
2006,06,25,02,44,12.20
2006,06,25,02,45,12.20
2006,06,25,02,46,12.20
2006,06,25,02,47,12.20
2006,06,25,02,48,12.20
2006,06,25,02,49,12.10
2006,06,25,02,50,12.10
2006,06,25,02,51,12.10
2006,06,25,02,52,12.10
2006,06,25,02,53,12.10
2006,06,25,02,54,12.00
2006,06,25,02,55,12.00
2006,06,25,02,56,12.00
2006,06,25,02,57,11.90
2006,06,25,02,58,11.80
2006,06,25,02,59,11.80
2006,06,25,03,00,11.80
2006,06,25,03,01,11.80
2006,06,25,03,02,11.80
2006,06,25,03,03,11.80
2006,06,25,03,04,11.80
2006,06,25,03,05,11.80
2006,06,25,03,06,11.80
2006,06,25,03,07,11.80
2006,06,25,03,08,11.80
2006,06,25,03,09,11.80
2006,06,25,03,10,11.80
2006,06,25,03,11,11.80
2006,06,25,03,12,11.80
2006,06,25,03,13,11.80
2006,06,25,03,14,11.80
2006,06,25,03,15,11.80
2006,06,25,03,16,11.80
2006,06,25,03,17,11.80
2006,06,25,03,18,11.80
2006,06,25,03,19,11.90
2006,06,25,03,20,11.90
2006,06,25,03,21,11.90
2006,06,25,03,22,11.90
2006,06,25,03,23,11.90
2006,06,25,03,24,11.80
2006,06,25,03,25,11.80
2006,06,25,03,26,11.80
2006,06,25,03,27,11.80
2006,06,25,03,28,11.80
2006,06,25,03,29,11.80
2006,06,25,03,30,11.80
2006,06,25,03,31,11.80
2006,06,25,03,32,11.80
2006,06,25,03,33,11.80
2006,06,25,03,34,11.80
2006,06,25,03,35,11.80
2006,06,25,03,36,11.80
2006,06,25,03,37,11.80
2006,06,25,03,38,11.80
2006,06,25,03,39,11.80
2006,06,25,03,40,11.80
2006,06,25,03,41,11.80
2006,06,25,03,42,11.80
2006,06,25,03,43,11.70
2006,06,25,03,44,11.70
2006,06,25,03,45,11.70
2006,06,25,03,46,11.70
2006,06,25,03,47,11.70
2006,06,25,03,48,11.60
2006,06,25,03,49,11.60
2006,06,25,03,50,11.60
2006,06,25,03,51,11.60
2006,06,25,03,52,11.60
2006,06,25,03,53,11.60
2006,06,25,03,54,11.60
2006,06,25,03,55,11.60
2006,06,25,03,56,11.60
2006,06,25,03,57,11.60
2006,06,25,03,58,11.60
2006,06,25,03,59,11.60
2006,06,25,04,00,11.60
2006,06,25,04,01,11.60
2006,06,25,04,02,11.50
2006,06,25,04,03,11.40
2006,06,25,04,04,11.40
2006,06,25,04,05,11.40
2006,06,25,04,06,11.40
2006,06,25,04,07,11.40
2006,06,25,04,08,11.40
2006,06,25,04,09,11.30
2006,06,25,04,10,11.30
2006,06,25,04,11,11.20
2006,06,25,04,12,11.20
2006,06,25,04,13,11.10
2006,06,25,04,14,11.10
2006,06,25,04,15,11.20
2006,06,25,04,16,11.20
2006,06,25,04,17,11.30
2006,06,25,04,18,11.30
2006,06,25,04,19,11.30
2006,06,25,04,20,11.30
2006,06,25,04,21,11.30
2006,06,25,04,22,11.30
2006,06,25,04,23,11.30
2006,06,25,04,24,11.30
2006,06,25,04,25,11.30
2006,06,25,04,26,11.30
2006,06,25,04,27,11.30
2006,06,25,04,28,11.20
2006,06,25,04,29,11.30
2006,06,25,04,30,11.20
2006,06,25,04,31,11.20
2006,06,25,04,32,11.20
2006,06,25,04,33,11.20
2006,06,25,04,34,11.20
2006,06,25,04,35,11.20
2006,06,25,04,36,11.20
2006,06,25,04,37,11.20
2006,06,25,04,38,11.30
2006,06,25,04,39,11.30
2006,06,25,04,40,11.30
2006,06,25,04,41,11.20
2006,06,25,04,42,11.20
2006,06,25,04,43,11.20
2006,06,25,04,44,11.20
2006,06,25,04,45,11.20
2006,06,25,04,46,11.20
2006,06,25,04,47,11.20
2006,06,25,04,48,11.10
2006,06,25,04,49,11.10
2006,06,25,04,50,11.10
2006,06,25,04,51,11.10
2006,06,25,04,52,11.10
2006,06,25,04,53,11.20
2006,06,25,04,54,11.20
2006,06,25,04,55,11.20
2006,06,25,04,56,11.20
2006,06,25,04,57,11.20
2006,06,25,04,58,11.20
2006,06,25,04,59,11.20
2006,06,25,05,00,11.20
2006,06,25,05,01,11.10
2006,06,25,05,02,11.10
2006,06,25,05,03,11.10
2006,06,25,05,04,11.10
2006,06,25,05,05,11.10
2006,06,25,05,06,11.10
2006,06,25,05,07,11.10
2006,06,25,05,08,11.10
2006,06,25,05,09,11.10
2006,06,25,05,10,11.10
2006,06,25,05,11,11.10
2006,06,25,05,12,11.00
2006,06,25,05,13,10.90
2006,06,25,05,14,10.90
2006,06,25,05,15,10.90
2006,06,25,05,16,10.80
2006,06,25,05,17,10.70
2006,06,25,05,18,10.70
2006,06,25,05,19,10.70
2006,06,25,05,20,10.60
2006,06,25,05,21,10.60
2006,06,25,05,22,10.60
2006,06,25,05,23,10.60
2006,06,25,05,24,10.60
2006,06,25,05,25,10.60
2006,06,25,05,26,10.60
2006,06,25,05,27,10.60
2006,06,25,05,28,10.60
2006,06,25,05,29,10.50
2006,06,25,05,30,10.40
2006,06,25,05,31,10.40
2006,06,25,05,32,10.40
2006,06,25,05,33,10.40
2006,06,25,05,34,10.40
2006,06,25,05,35,10.40
2006,06,25,05,36,10.40
2006,06,25,05,37,10.40
2006,06,25,05,38,10.40
2006,06,25,05,39,10.40
2006,06,25,05,40,10.40
2006,06,25,05,41,10.40
2006,06,25,05,42,10.50
2006,06,25,05,43,10.60
2006,06,25,05,44,10.60
2006,06,25,05,45,10.60
2006,06,25,05,46,10.60
2006,06,25,05,47,10.60
2006,06,25,05,48,10.60
2006,06,25,05,49,10.60
2006,06,25,05,50,10.60
2006,06,25,05,51,10.60
2006,06,25,05,52,10.60
2006,06,25,05,53,10.70
2006,06,25,05,54,10.70
2006,06,25,05,55,10.70
2006,06,25,05,56,10.80
2006,06,25,05,57,10.90
2006,06,25,05,58,10.90
2006,06,25,05,59,11.10
2006,06,25,06,00,11.10
2006,06,25,06,01,11.20
2006,06,25,06,02,11.30
2006,06,25,06,03,11.30
2006,06,25,06,04,11.40
2006,06,25,06,05,11.40
2006,06,25,06,06,11.50
2006,06,25,06,07,11.60
2006,06,25,06,08,11.60
2006,06,25,06,09,11.70
2006,06,25,06,10,11.70
2006,06,25,06,11,11.80
2006,06,25,06,12,11.80
2006,06,25,06,13,11.80
2006,06,25,06,14,11.90
2006,06,25,06,15,11.90
2006,06,25,06,16,12.00
2006,06,25,06,17,12.00
2006,06,25,06,18,12.00
2006,06,25,06,19,12.10
2006,06,25,06,20,12.10
2006,06,25,06,21,12.10
2006,06,25,06,22,12.10
2006,06,25,06,23,12.20
2006,06,25,06,24,12.20
2006,06,25,06,25,12.20
2006,06,25,06,26,12.30
2006,06,25,06,27,12.30
2006,06,25,06,28,12.30
2006,06,25,06,29,12.40
2006,06,25,06,30,12.50
2006,06,25,06,31,12.60
2006,06,25,06,32,12.80
2006,06,25,06,33,12.90
2006,06,25,06,34,13.00
2006,06,25,06,35,13.10
2006,06,25,06,36,13.30
2006,06,25,06,37,13.30
2006,06,25,06,38,13.40
2006,06,25,06,39,13.40
2006,06,25,06,40,13.50
2006,06,25,06,41,13.60
2006,06,25,06,42,13.70
2006,06,25,06,43,13.70
2006,06,25,06,44,13.80
2006,06,25,06,45,13.90
2006,06,25,06,46,13.90
2006,06,25,06,47,14.10
2006,06,25,06,48,14.20
2006,06,25,06,49,14.20
2006,06,25,06,50,14.30
2006,06,25,06,51,14.40
2006,06,25,06,52,14.40
2006,06,25,06,53,14.50
2006,06,25,06,54,14.50
2006,06,25,06,55,14.50
2006,06,25,06,56,14.50
2006,06,25,06,57,14.60
2006,06,25,06,58,14.60
2006,06,25,06,59,14.70
2006,06,25,07,00,14.70
2006,06,25,07,01,14.70
2006,06,25,07,02,14.70
2006,06,25,07,03,14.80
2006,06,25,07,04,14.80
2006,06,25,07,05,14.80
2006,06,25,07,06,14.80
2006,06,25,07,07,14.80
2006,06,25,07,08,14.80
2006,06,25,07,09,14.80
2006,06,25,07,10,14.80
2006,06,25,07,11,14.90
2006,06,25,07,12,14.90
2006,06,25,07,13,15.00
2006,06,25,07,14,15.00
2006,06,25,07,15,15.10
2006,06,25,07,16,15.10
2006,06,25,07,17,15.20
2006,06,25,07,18,15.30
2006,06,25,07,19,15.40
2006,06,25,07,20,15.60
2006,06,25,07,21,15.70
2006,06,25,07,22,15.80
2006,06,25,07,23,15.90
2006,06,25,07,24,16.10
2006,06,25,07,25,16.10
2006,06,25,07,26,16.20
2006,06,25,07,27,16.30
2006,06,25,07,28,16.40
2006,06,25,07,29,16.40
2006,06,25,07,30,16.50
2006,06,25,07,31,16.60
2006,06,25,07,32,16.70
2006,06,25,07,33,16.70
2006,06,25,07,34,16.80
2006,06,25,07,35,16.80
2006,06,25,07,36,16.90
2006,06,25,07,37,17.00
2006,06,25,07,38,17.00
2006,06,25,07,39,17.10
2006,06,25,07,40,17.20
2006,06,25,07,41,17.30
2006,06,25,07,42,17.30
2006,06,25,07,43,17.30
2006,06,25,07,44,17.50
2006,06,25,07,45,17.60
2006,06,25,07,46,17.70
2006,06,25,07,47,17.90
2006,06,25,07,48,17.90
2006,06,25,07,49,18.10
2006,06,25,07,50,18.20
2006,06,25,07,51,18.20
2006,06,25,07,52,18.30
2006,06,25,07,53,18.40
2006,06,25,07,54,18.50
2006,06,25,07,55,18.60
2006,06,25,07,56,18.60
2006,06,25,07,57,18.80
2006,06,25,07,58,18.90
2006,06,25,07,59,19.00
2006,06,25,08,00,19.10
2006,06,25,08,01,19.10
2006,06,25,08,02,19.10
2006,06,25,08,03,19.20
2006,06,25,08,04,19.20
2006,06,25,08,05,19.30
2006,06,25,08,06,19.40
2006,06,25,08,07,19.40
2006,06,25,08,08,19.40
2006,06,25,08,09,19.50
2006,06,25,08,10,19.60
2006,06,25,08,11,19.60
2006,06,25,08,12,19.70
2006,06,25,08,13,19.70
2006,06,25,08,14,19.80
2006,06,25,08,15,19.90
2006,06,25,08,16,19.90
2006,06,25,08,17,20.00
2006,06,25,08,18,20.10
2006,06,25,08,19,20.20
2006,06,25,08,20,20.30
2006,06,25,08,21,20.40
2006,06,25,08,22,20.50
2006,06,25,08,23,20.60
2006,06,25,08,24,20.80
2006,06,25,08,25,20.90
2006,06,25,08,26,21.00
2006,06,25,08,27,21.20
2006,06,25,08,28,21.40
2006,06,25,08,29,21.60
2006,06,25,08,30,21.80
2006,06,25,08,31,21.90
2006,06,25,08,32,22.00
2006,06,25,08,33,22.30
2006,06,25,08,34,22.50
2006,06,25,08,35,22.60
2006,06,25,08,36,22.80
2006,06,25,08,37,22.90
2006,06,25,08,38,22.90
2006,06,25,08,39,22.90
2006,06,25,08,40,22.90
2006,06,25,08,41,23.00
2006,06,25,08,42,23.10
2006,06,25,08,43,23.10
2006,06,25,08,44,23.20
2006,06,25,08,45,23.20
2006,06,25,08,46,23.20
2006,06,25,08,47,23.30
2006,06,25,08,48,23.30
2006,06,25,08,49,23.20
2006,06,25,08,50,23.20
2006,06,25,08,51,23.20
2006,06,25,08,52,23.20
2006,06,25,08,53,23.10
2006,06,25,08,54,23.10
2006,06,25,08,55,23.10
2006,06,25,08,56,23.10
2006,06,25,08,57,23.20
2006,06,25,08,58,23.20
2006,06,25,08,59,23.20
2006,06,25,09,00,23.20
2006,06,25,09,01,23.10
2006,06,25,09,02,23.10
2006,06,25,09,03,23.10
2006,06,25,09,04,23.10
2006,06,25,09,05,23.10
2006,06,25,09,06,23.10
2006,06,25,09,07,23.20
2006,06,25,09,08,23.20
2006,06,25,09,09,23.20
2006,06,25,09,10,23.30
2006,06,25,09,11,23.30
2006,06,25,09,12,23.40
2006,06,25,09,13,23.40
2006,06,25,09,14,23.40
2006,06,25,09,15,23.40
2006,06,25,09,16,23.40
2006,06,25,09,17,23.40
2006,06,25,09,18,23.40
2006,06,25,09,19,23.40
2006,06,25,09,20,23.50
2006,06,25,09,21,23.60
2006,06,25,09,22,23.70
2006,06,25,09,23,23.60
2006,06,25,09,24,23.60
2006,06,25,09,25,23.60
2006,06,25,09,26,23.70
2006,06,25,09,27,23.70
2006,06,25,09,28,23.70
2006,06,25,09,29,23.80
2006,06,25,09,30,23.80
2006,06,25,09,31,23.80
2006,06,25,09,32,23.80
2006,06,25,09,33,23.70
2006,06,25,09,34,23.70
2006,06,25,09,35,23.70
2006,06,25,09,36,23.80
2006,06,25,09,37,23.80
2006,06,25,09,38,23.80
2006,06,25,09,39,23.80
2006,06,25,09,40,23.80
2006,06,25,09,41,23.70
2006,06,25,09,42,23.70
2006,06,25,09,43,23.70
2006,06,25,09,44,23.70
2006,06,25,09,45,23.70
2006,06,25,09,46,23.70
2006,06,25,09,47,23.80
2006,06,25,09,48,23.80
2006,06,25,09,49,23.90
2006,06,25,09,50,24.00
2006,06,25,09,51,24.10
2006,06,25,09,52,24.10
2006,06,25,09,53,24.10
2006,06,25,09,54,24.10
2006,06,25,09,55,24.10
2006,06,25,09,56,24.10
2006,06,25,09,57,24.10
2006,06,25,09,58,24.10
2006,06,25,09,59,24.10
2006,06,25,10,00,24.10
2006,06,25,10,01,24.10
2006,06,25,10,02,24.10
2006,06,25,10,03,24.10
2006,06,25,10,04,24.10
2006,06,25,10,05,24.10
2006,06,25,10,06,24.10
2006,06,25,10,07,24.20
2006,06,25,10,08,24.30
2006,06,25,10,09,24.40
2006,06,25,10,10,24.50
2006,06,25,10,11,24.60
2006,06,25,10,12,24.50
2006,06,25,10,13,24.50
2006,06,25,10,14,24.50
2006,06,25,10,15,24.50
2006,06,25,10,16,24.50
2006,06,25,10,17,24.60
2006,06,25,10,18,24.60
2006,06,25,10,19,24.70
2006,06,25,10,20,24.60
2006,06,25,10,21,24.60
2006,06,25,10,22,24.50
2006,06,25,10,23,24.40
2006,06,25,10,24,24.30
2006,06,25,10,25,24.20
2006,06,25,10,26,24.20
2006,06,25,10,27,24.10
2006,06,25,10,28,24.20
2006,06,25,10,29,24.30
2006,06,25,10,30,24.40
2006,06,25,10,31,24.50
2006,06,25,10,32,24.50
2006,06,25,10,33,24.60
2006,06,25,10,34,24.70
2006,06,25,10,35,24.70
2006,06,25,10,36,24.80
2006,06,25,10,37,24.80
2006,06,25,10,38,24.70
2006,06,25,10,39,24.70
2006,06,25,10,40,24.80
2006,06,25,10,41,24.80
2006,06,25,10,42,24.90
2006,06,25,10,43,24.90
2006,06,25,10,44,24.90
2006,06,25,10,45,24.80
2006,06,25,10,46,24.60
2006,06,25,10,47,24.50
2006,06,25,10,48,24.50
2006,06,25,10,49,24.60
2006,06,25,10,50,24.70
2006,06,25,10,51,24.70
2006,06,25,10,52,24.80
2006,06,25,10,53,24.80
2006,06,25,10,54,24.80
2006,06,25,10,55,24.80
2006,06,25,10,56,24.80
2006,06,25,10,57,24.90
2006,06,25,10,58,24.90
2006,06,25,10,59,24.90
2006,06,25,11,00,25.00
2006,06,25,11,01,25.10
2006,06,25,11,02,25.10
2006,06,25,11,03,25.10
2006,06,25,11,04,25.10
2006,06,25,11,05,25.00
2006,06,25,11,06,25.00
2006,06,25,11,07,25.00
2006,06,25,11,08,25.00
2006,06,25,11,09,24.90
2006,06,25,11,10,24.90
2006,06,25,11,11,24.90
2006,06,25,11,12,25.00
2006,06,25,11,13,25.20
2006,06,25,11,14,25.40
2006,06,25,11,15,25.60
2006,06,25,11,16,25.80
2006,06,25,11,17,25.90
2006,06,25,11,18,25.90
2006,06,25,11,19,26.00
2006,06,25,11,20,25.90
2006,06,25,11,21,25.80
2006,06,25,11,22,25.50
2006,06,25,11,23,25.40
2006,06,25,11,24,25.30
2006,06,25,11,25,25.10
2006,06,25,11,26,25.00
2006,06,25,11,27,25.00
2006,06,25,11,28,25.00
2006,06,25,11,29,24.90
2006,06,25,11,30,24.90
2006,06,25,11,31,24.90
2006,06,25,11,32,24.90
2006,06,25,11,33,24.90
2006,06,25,11,34,25.00
2006,06,25,11,35,25.10
2006,06,25,11,36,25.20
2006,06,25,11,37,25.30
2006,06,25,11,38,25.20
2006,06,25,11,39,25.20
2006,06,25,11,40,25.30
2006,06,25,11,41,25.40
2006,06,25,11,42,25.50
2006,06,25,11,43,25.50
2006,06,25,11,44,25.60
2006,06,25,11,45,25.60
2006,06,25,11,46,25.60
2006,06,25,11,47,25.50
2006,06,25,11,48,25.40
2006,06,25,11,49,25.40
2006,06,25,11,50,25.40
2006,06,25,11,51,25.50
2006,06,25,11,52,25.50
2006,06,25,11,53,25.60
2006,06,25,11,54,25.60
2006,06,25,11,55,25.60
2006,06,25,11,56,25.50
2006,06,25,11,57,25.50
2006,06,25,11,58,25.50
2006,06,25,11,59,25.60
2006,06,25,12,00,25.70
2006,06,25,12,01,25.70
2006,06,25,12,02,25.70
2006,06,25,12,03,25.70
2006,06,25,12,04,25.70
2006,06,25,12,05,25.80
2006,06,25,12,06,25.90
2006,06,25,12,07,26.00
2006,06,25,12,08,26.00
2006,06,25,12,09,25.90
2006,06,25,12,10,25.90
2006,06,25,12,11,25.90
2006,06,25,12,12,25.90
2006,06,25,12,13,25.90
2006,06,25,12,14,25.90
2006,06,25,12,15,25.90
2006,06,25,12,16,25.90
2006,06,25,12,17,25.90
2006,06,25,12,18,25.90
2006,06,25,12,19,25.90
2006,06,25,12,20,26.00
2006,06,25,12,21,25.90
2006,06,25,12,22,25.90
2006,06,25,12,23,25.90
2006,06,25,12,24,25.90
2006,06,25,12,25,25.90
2006,06,25,12,26,25.90
2006,06,25,12,27,26.00
2006,06,25,12,28,26.00
2006,06,25,12,29,25.90
2006,06,25,12,30,25.90
2006,06,25,12,31,25.90
2006,06,25,12,32,25.90
2006,06,25,12,33,25.90
2006,06,25,12,34,25.90
2006,06,25,12,35,26.00
2006,06,25,12,36,26.10
2006,06,25,12,37,26.10
2006,06,25,12,38,26.30
2006,06,25,12,39,26.40
2006,06,25,12,40,26.40
2006,06,25,12,41,26.40
2006,06,25,12,42,26.40
2006,06,25,12,43,26.40
2006,06,25,12,44,26.40
2006,06,25,12,45,26.40
2006,06,25,12,46,26.40
2006,06,25,12,47,26.50
2006,06,25,12,48,26.60
2006,06,25,12,49,26.70
2006,06,25,12,50,26.80
2006,06,25,12,51,27.00
2006,06,25,12,52,27.10
2006,06,25,12,53,27.20
2006,06,25,12,54,27.20
2006,06,25,12,55,27.30
2006,06,25,12,56,27.30
2006,06,25,12,57,27.20
2006,06,25,12,58,27.10
2006,06,25,12,59,27.10
2006,06,25,13,00,27.00
2006,06,25,13,01,27.00
2006,06,25,13,02,27.10
2006,06,25,13,03,27.10
2006,06,25,13,04,27.20
2006,06,25,13,05,27.20
2006,06,25,13,06,27.30
2006,06,25,13,07,27.30
2006,06,25,13,08,27.30
2006,06,25,13,09,27.30
2006,06,25,13,10,27.30
2006,06,25,13,11,27.50
2006,06,25,13,12,27.70
2006,06,25,13,13,27.80
2006,06,25,13,14,27.80
2006,06,25,13,15,27.90
2006,06,25,13,16,28.00
2006,06,25,13,17,28.00
2006,06,25,13,18,27.90
2006,06,25,13,19,27.90
2006,06,25,13,20,28.00
2006,06,25,13,21,28.00
2006,06,25,13,22,28.10
2006,06,25,13,23,28.10
2006,06,25,13,24,28.10
2006,06,25,13,25,28.10
2006,06,25,13,26,28.10
2006,06,25,13,27,28.20
2006,06,25,13,28,28.10
2006,06,25,13,29,28.00
2006,06,25,13,30,28.00
2006,06,25,13,31,28.00
2006,06,25,13,32,28.00
2006,06,25,13,33,28.00
2006,06,25,13,34,28.10
2006,06,25,13,35,28.20
2006,06,25,13,36,28.30
2006,06,25,13,37,28.30
2006,06,25,13,38,28.40
2006,06,25,13,39,28.40
2006,06,25,13,40,28.50
2006,06,25,13,41,28.60
2006,06,25,13,42,28.60
2006,06,25,13,43,28.60
2006,06,25,13,44,28.60
2006,06,25,13,45,28.60
2006,06,25,13,46,28.60
2006,06,25,13,47,28.60
2006,06,25,13,48,28.70
2006,06,25,13,49,28.60
2006,06,25,13,50,28.50
2006,06,25,13,51,28.30
2006,06,25,13,52,28.30
2006,06,25,13,53,28.30
2006,06,25,13,54,28.40
2006,06,25,13,55,28.40
2006,06,25,13,56,28.50
2006,06,25,13,57,28.70
2006,06,25,13,58,28.70
2006,06,25,13,59,28.70
2006,06,25,14,00,28.70
2006,06,25,14,01,28.80
2006,06,25,14,02,28.80
2006,06,25,14,03,28.90
2006,06,25,14,04,28.90
2006,06,25,14,05,28.90
2006,06,25,14,06,28.90
2006,06,25,14,07,28.80
2006,06,25,14,08,28.80
2006,06,25,14,09,28.80
2006,06,25,14,10,28.70
2006,06,25,14,11,28.70
2006,06,25,14,12,28.60
2006,06,25,14,13,28.60
2006,06,25,14,14,28.60
2006,06,25,14,15,28.70
2006,06,25,14,16,28.80
2006,06,25,14,17,28.90
2006,06,25,14,18,29.00
2006,06,25,14,19,29.10
2006,06,25,14,20,29.00
2006,06,25,14,21,28.90
2006,06,25,14,22,28.90
2006,06,25,14,23,28.90
2006,06,25,14,24,28.90
2006,06,25,14,25,28.80
2006,06,25,14,26,28.80
2006,06,25,14,27,28.90
2006,06,25,14,28,28.90
2006,06,25,14,29,28.90
2006,06,25,14,30,28.90
2006,06,25,14,31,28.90
2006,06,25,14,32,28.90
2006,06,25,14,33,28.90
2006,06,25,14,34,28.80
2006,06,25,14,35,28.80
2006,06,25,14,36,28.90
2006,06,25,14,37,28.90
2006,06,25,14,38,28.90
2006,06,25,14,39,28.80
2006,06,25,14,40,28.80
2006,06,25,14,41,28.70
2006,06,25,14,42,28.70
2006,06,25,14,43,28.80
2006,06,25,14,44,28.90
2006,06,25,14,45,28.90
2006,06,25,14,46,28.90
2006,06,25,14,47,28.90
2006,06,25,14,48,28.90
2006,06,25,14,49,28.90
2006,06,25,14,50,28.90
2006,06,25,14,51,28.90
2006,06,25,14,52,29.00
2006,06,25,14,53,28.90
2006,06,25,14,54,28.90
2006,06,25,14,55,28.90
2006,06,25,14,56,28.90
2006,06,25,14,57,28.90
2006,06,25,14,58,28.90
2006,06,25,14,59,28.90
2006,06,25,15,00,29.00
2006,06,25,15,01,29.10
2006,06,25,15,02,29.10
2006,06,25,15,03,29.10
2006,06,25,15,04,29.10
2006,06,25,15,05,29.10
2006,06,25,15,06,29.10
2006,06,25,15,07,29.10
2006,06,25,15,08,29.00
2006,06,25,15,09,28.90
2006,06,25,15,10,29.00
2006,06,25,15,11,29.10
2006,06,25,15,12,29.30
2006,06,25,15,13,29.40
2006,06,25,15,14,29.60
2006,06,25,15,15,29.70
2006,06,25,15,16,29.80
2006,06,25,15,17,29.80
2006,06,25,15,18,29.90
2006,06,25,15,19,30.00
2006,06,25,15,20,30.20
2006,06,25,15,21,30.30
2006,06,25,15,22,30.30
2006,06,25,15,23,30.40
2006,06,25,15,24,30.20
2006,06,25,15,25,30.10
2006,06,25,15,26,30.00
2006,06,25,15,27,29.90
2006,06,25,15,28,29.70
2006,06,25,15,29,29.60
2006,06,25,15,30,29.60
2006,06,25,15,31,29.50
2006,06,25,15,32,29.40
2006,06,25,15,33,29.40
2006,06,25,15,34,29.40
2006,06,25,15,35,29.50
2006,06,25,15,36,29.60
2006,06,25,15,37,29.60
2006,06,25,15,38,29.60
2006,06,25,15,39,29.60
2006,06,25,15,40,29.70
2006,06,25,15,41,29.60
2006,06,25,15,42,29.60
2006,06,25,15,43,29.60
2006,06,25,15,44,29.60
2006,06,25,15,45,29.70
2006,06,25,15,46,29.80
2006,06,25,15,47,29.80
2006,06,25,15,48,29.80
2006,06,25,15,49,29.90
2006,06,25,15,50,29.90
2006,06,25,15,51,29.90
2006,06,25,15,52,30.00
2006,06,25,15,53,30.10
2006,06,25,15,54,30.20
2006,06,25,15,55,30.30
2006,06,25,15,56,30.40
2006,06,25,15,57,30.30
2006,06,25,15,58,30.30
2006,06,25,15,59,30.30
2006,06,25,16,00,30.30
2006,06,25,16,01,30.20
2006,06,25,16,02,30.10
2006,06,25,16,03,30.00
2006,06,25,16,04,29.90
2006,06,25,16,05,30.10
2006,06,25,16,06,30.10
2006,06,25,16,07,30.10
2006,06,25,16,08,30.00
2006,06,25,16,09,29.90
2006,06,25,16,10,29.90
2006,06,25,16,11,29.90
2006,06,25,16,12,29.90
2006,06,25,16,13,30.00
2006,06,25,16,14,30.00
2006,06,25,16,15,29.90
2006,06,25,16,16,29.80
2006,06,25,16,17,29.80
2006,06,25,16,18,29.80
2006,06,25,16,19,29.90
2006,06,25,16,20,29.90
2006,06,25,16,21,29.90
2006,06,25,16,22,29.90
2006,06,25,16,23,29.90
2006,06,25,16,24,30.10
2006,06,25,16,25,30.20
2006,06,25,16,26,30.20
2006,06,25,16,27,30.20
2006,06,25,16,28,30.20
2006,06,25,16,29,30.30
2006,06,25,16,30,30.30
2006,06,25,16,31,30.50
2006,06,25,16,32,30.60
2006,06,25,16,33,30.80
2006,06,25,16,34,30.80
2006,06,25,16,35,30.80
2006,06,25,16,36,30.90
2006,06,25,16,37,30.90
2006,06,25,16,38,30.90
2006,06,25,16,39,31.00
2006,06,25,16,40,30.90
2006,06,25,16,41,30.70
2006,06,25,16,42,30.50
2006,06,25,16,43,30.30
2006,06,25,16,44,30.20
2006,06,25,16,45,30.00
2006,06,25,16,46,29.80
2006,06,25,16,47,29.70
2006,06,25,16,48,29.80
2006,06,25,16,49,29.80
2006,06,25,16,50,29.80
2006,06,25,16,51,29.70
2006,06,25,16,52,29.60
2006,06,25,16,53,29.50
2006,06,25,16,54,29.40
2006,06,25,16,55,29.40
2006,06,25,16,56,29.40
2006,06,25,16,57,29.30
2006,06,25,16,58,29.30
2006,06,25,16,59,29.30
2006,06,25,17,00,29.20
2006,06,25,17,01,29.20
2006,06,25,17,02,29.20
2006,06,25,17,03,29.20
2006,06,25,17,04,29.30
2006,06,25,17,05,29.40
2006,06,25,17,06,29.40
2006,06,25,17,07,29.50
2006,06,25,17,08,29.40
2006,06,25,17,09,29.40
2006,06,25,17,10,29.30
2006,06,25,17,11,29.30
2006,06,25,17,12,29.30
2006,06,25,17,13,29.30
2006,06,25,17,14,29.30
2006,06,25,17,15,29.20
2006,06,25,17,16,29.10
2006,06,25,17,17,29.00
2006,06,25,17,18,28.90
2006,06,25,17,19,28.90